Time,TemperatureF,DewpointF,PressureIn,WindDirection,WindDirectionDegrees,WindSpeedMPH,WindSpeedGustMPH,Humidity,HourlyPrecipIn,Conditions,Clouds,dailyrainin,SolarRadiationWatts/m^2,SoftwareType,DateUTC
2013-07-03 00:03:00,62.2,58.3,29.74,SSE,151,0.0,3.5,87,0.00,RA,,0.00,0.0,WeatherDisplay:10.37,2013-07-02 22:03:00,
2013-07-03 00:08:00,62.1,58.2,29.74,SSE,152,0.0,0.0,87,0.00,RA,,0.00,0.0,WeatherDisplay:10.37,2013-07-02 22:08:00,
2013-07-03 00:13:00,62.0,58.4,29.74,SSE,151,0.0,0.0,88,0.00,RA,,0.00,0.0,WeatherDisplay:10.37,2013-07-02 22:13:00,
2013-07-03 00:18:00,61.9,58.3,29.73,SSE,151,0.1,2.3,88,0.00,RA,,0.00,0.0,WeatherDisplay:10.37,2013-07-02 22:18:00,
2013-07-03 00:23:00,61.7,58.4,29.73,SE,143,2.0,2.3,89,0.00,RA,,0.00,0.0,WeatherDisplay:10.37,2013-07-02 22:23:00,
2013-07-03 00:28:00,61.5,58.2,29.73,SE,143,0.0,0.0,89,0.00,SCT,,0.00,0.0,WeatherDisplay:10.37,2013-07-02 22:28:00,
2013-07-03 00:33:00,61.4,58.1,29.72,SE,143,0.6,0.0,89,0.00,CLR,,0.00,0.0,WeatherDisplay:10.37,2013-07-02 22:33:00,
2013-07-03 00:38:00,61.3,58.0,29.72,SE,142,2.4,4.6,89,0.00,CLR,,0.00,0.0,WeatherDisplay:10.37,2013-07-02 22:38:00,
2013-07-03 00:43:00,61.3,58.0,29.71,SE,134,2.2,5.8,89,0.00,CLR,,0.00,0.0,WeatherDisplay:10.37,2013-07-02 22:43:00,
2013-07-03 00:48:00,61.3,58.0,29.72,SE,134,1.3,3.5,89,0.00,CLR,,0.00,0.0,WeatherDisplay:10.37,2013-07-02 22:48:00,
2013-07-03 00:53:00,61.1,57.8,29.71,ESE,115,4.0,6.0,89,0.00,CLR,,0.00,0.0,WeatherDisplay:10.37,2013-07-02 22:53:00,
2013-07-03 00:58:00,61.2,57.9,29.71,ESE,105,0.3,3.5,89,0.00,CLR,,0.00,0.0,WeatherDisplay:10.37,2013-07-02 22:58:00,
2013-07-03 01:03:00,61.1,57.8,29.71,ESE,105,1.0,3.5,89,0.00,SCT,,0.00,0.0,WeatherDisplay:10.37,2013-07-02 23:03:00,
2013-07-03 01:08:00,61.2,57.9,29.70,ESE,105,2.3,3.5,89,0.00,SCT,,0.00,0.0,WeatherDisplay:10.37,2013-07-02 23:08:00,
2013-07-03 01:13:00,61.2,58.2,29.70,ESE,105,1.0,5.8,90,0.00,SCT,,0.00,0.0,WeatherDisplay:10.37,2013-07-02 23:13:00,
2013-07-03 01:18:00,61.1,58.1,29.69,East,95,0.6,5.8,90,0.00,SCT,,0.00,0.0,WeatherDisplay:10.37,2013-07-02 23:18:00,
2013-07-03 01:23:00,60.9,57.9,29.70,East,94,0.0,2.3,90,0.00,SCT,,0.00,0.0,WeatherDisplay:10.37,2013-07-02 23:23:00,
2013-07-03 01:28:00,60.9,57.9,29.70,East,94,0.0,0.0,90,0.00,SCT,,0.00,0.0,WeatherDisplay:10.37,2013-07-02 23:28:00,
2013-07-03 01:29:00,60.9,57.9,29.70,East,94,0.0,0.0,90,0.00,SCT,,0.00,0.0,WeatherDisplay:10.37,2013-07-02 23:29:00,
2013-07-03 01:34:00,61.0,58.3,29.72,East,94,0.0,1.0,91,0.00,-RA,,0.00,0.0,WeatherDisplay:10.37,2013-07-02 23:34:00,
2013-07-03 01:39:00,61.0,58.3,29.73,SSW,198,3.3,4.6,91,0.09,-RA,,0.09,0.0,WeatherDisplay:10.37,2013-07-02 23:39:00,
2013-07-03 01:44:00,61.1,58.7,29.72,SSW,196,1.0,3.5,92,0.19,-RA,,0.19,0.0,WeatherDisplay:10.37,2013-07-02 23:44:00,
2013-07-03 01:49:00,61.0,58.6,29.71,SSW,193,1.6,3.5,92,0.23,-RA,,0.23,0.0,WeatherDisplay:10.37,2013-07-02 23:49:00,
2013-07-03 01:54:00,60.8,58.4,29.71,South,172,0.0,1.2,92,0.24,-RA,,0.24,0.0,WeatherDisplay:10.37,2013-07-02 23:54:00,
2013-07-03 01:59:00,60.7,58.3,29.70,South,172,2.2,3.5,92,0.25,-RA,,0.25,0.0,WeatherDisplay:10.37,2013-07-02 23:59:00,
2013-07-03 02:01:00,60.6,58.2,29.70,South,172,0.2,1.2,92,0.25,RA,,0.25,0.0,WeatherDisplay:10.37,2013-07-03 00:01:00,
2013-07-03 02:06:00,60.6,58.5,29.70,South,171,0.7,2.3,93,0.25,RA,,0.25,0.0,WeatherDisplay:10.37,2013-07-03 00:06:00,
2013-07-03 02:11:00,60.6,58.5,29.70,South,171,1.6,3.5,93,0.26,RA,,0.26,0.0,WeatherDisplay:10.37,2013-07-03 00:11:00,
2013-07-03 02:16:00,60.5,58.4,29.70,South,170,3.0,4.6,93,0.26,RA,,0.26,0.0,WeatherDisplay:10.37,2013-07-03 00:16:00,
2013-07-03 02:21:00,60.5,58.7,29.70,SSE,165,5.0,5.8,94,0.26,RA,,0.26,0.0,WeatherDisplay:10.37,2013-07-03 00:21:00,
2013-07-03 02:23:00,60.6,58.8,29.70,SSE,161,4.5,6.9,94,0.26,RA,,0.26,0.0,WeatherDisplay:10.37,2013-07-03 00:23:00,
2013-07-03 02:24:00,60.6,58.8,29.70,SSE,160,4.4,6.9,94,0.26,RA,,0.26,0.0,WeatherDisplay:10.37,2013-07-03 00:24:00,
2013-07-03 02:28:00,60.6,58.8,29.69,SSE,159,2.4,8.0,94,0.26,RA,,0.26,0.0,WeatherDisplay:10.37,2013-07-03 00:28:00,
2013-07-03 02:33:00,60.6,58.8,29.69,SSE,157,2.6,6.9,94,0.27,RA,,0.27,0.0,WeatherDisplay:10.37,2013-07-03 00:33:00,
2013-07-03 02:38:00,60.5,58.7,29.69,SSE,157,1.1,6.9,94,0.24,RA,,0.28,0.0,WeatherDisplay:10.37,2013-07-03 00:38:00,
2013-07-03 02:43:00,60.5,58.7,29.68,SSE,157,0.8,4.6,94,0.10,RA,,0.28,0.0,WeatherDisplay:10.37,2013-07-03 00:43:00,
2013-07-03 02:48:00,60.4,58.6,29.68,SSE,157,0.2,3.5,94,0.06,RA,,0.28,0.0,WeatherDisplay:10.37,2013-07-03 00:48:00,
2013-07-03 02:53:00,60.4,58.6,29.68,SSE,157,0.0,0.0,94,0.04,RA,,0.28,0.0,WeatherDisplay:10.37,2013-07-03 00:53:00,
2013-07-03 02:58:00,60.4,58.6,29.68,SSE,157,0.8,2.3,94,0.03,RA,,0.28,0.0,WeatherDisplay:10.37,2013-07-03 00:58:00,
2013-07-03 03:00:00,60.5,58.7,29.68,SSE,157,2.4,5.8,94,0.04,RA,,0.29,0.0,WeatherDisplay:10.37,2013-07-03 01:00:00,
2013-07-03 03:03:00,60.5,58.7,29.68,SSE,157,1.9,4.6,94,0.04,-RA,,0.29,0.0,WeatherDisplay:10.37,2013-07-03 01:03:00,
2013-07-03 03:08:00,60.5,58.7,29.68,SSE,157,0.4,3.5,94,0.05,-RA,,0.30,0.0,WeatherDisplay:10.37,2013-07-03 01:08:00,
2013-07-03 03:09:00,60.5,58.7,29.68,SSE,157,0.2,3.5,94,0.05,-RA,,0.30,0.0,WeatherDisplay:10.37,2013-07-03 01:09:00,
2013-07-03 03:14:00,60.4,58.6,29.68,SSE,157,0.0,0.0,94,0.04,-RA,,0.30,0.0,WeatherDisplay:10.37,2013-07-03 01:14:00,
2013-07-03 03:19:00,60.5,59.0,29.68,SSE,157,0.0,0.0,95,0.04,-RA,,0.30,0.0,WeatherDisplay:10.37,2013-07-03 01:19:00,
2013-07-03 03:24:00,60.5,59.0,29.68,SSE,157,0.0,0.0,95,0.05,-RA,,0.31,0.0,WeatherDisplay:10.37,2013-07-03 01:24:00,
2013-07-03 03:26:00,60.5,59.0,29.68,SSE,157,0.0,0.0,95,0.05,-RA,,0.31,0.0,WeatherDisplay:10.37,2013-07-03 01:26:00,
2013-07-03 03:31:00,60.5,59.0,29.68,SSE,157,0.3,1.2,95,0.04,-RA,,0.31,0.0,WeatherDisplay:10.37,2013-07-03 01:31:00,
2013-07-03 03:36:00,60.6,59.1,29.68,SSE,157,3.6,4.6,95,0.03,-RA,,0.31,0.0,WeatherDisplay:10.37,2013-07-03 01:36:00,
2013-07-03 03:41:00,60.6,59.1,29.68,SSE,157,0.7,4.6,95,0.03,-RA,,0.31,0.0,WeatherDisplay:10.37,2013-07-03 01:41:00,
2013-07-03 03:46:00,60.5,59.0,29.68,SSE,157,0.9,5.8,95,0.04,-RA,,0.31,0.0,WeatherDisplay:10.37,2013-07-03 01:46:00,
2013-07-03 03:49:00,60.5,59.0,29.68,SSE,157,2.4,3.5,95,0.04,-RA,,0.31,0.0,WeatherDisplay:10.37,2013-07-03 01:49:00,
2013-07-03 03:50:00,60.5,59.0,29.68,SSE,157,2.6,4.6,95,0.04,-RA,,0.31,0.0,WeatherDisplay:10.37,2013-07-03 01:50:00,
2013-07-03 03:55:00,60.6,59.1,29.68,SSE,157,3.5,5.8,95,0.03,-RA,,0.31,0.0,WeatherDisplay:10.37,2013-07-03 01:55:00,
2013-07-03 04:00:00,60.6,59.1,29.68,SSE,157,0.7,2.3,95,0.02,-RA,,0.31,0.0,WeatherDisplay:10.37,2013-07-03 02:00:00,
2013-07-03 04:05:00,60.6,59.1,29.68,South,170,2.5,6.9,95,0.03,-RA,,0.32,0.0,WeatherDisplay:10.37,2013-07-03 02:05:00,
2013-07-03 04:11:00,60.6,59.1,29.68,South,180,2.8,4.6,95,0.02,-RA,,0.32,0.0,WeatherDisplay:10.37,2013-07-03 02:11:00,
2013-07-03 04:17:00,60.6,59.1,29.67,South,186,1.1,5.8,95,0.03,-RA,,0.33,0.0,WeatherDisplay:10.37,2013-07-03 02:17:00,
2013-07-03 04:22:00,60.6,59.1,29.67,SSW,198,0.4,2.3,95,0.03,-RA,,0.33,0.0,WeatherDisplay:10.37,2013-07-03 02:22:00,
2013-07-03 04:27:00,60.6,59.1,29.67,SSW,198,1.9,3.5,95,0.02,-RA,,0.33,0.0,WeatherDisplay:10.37,2013-07-03 02:27:00,
2013-07-03 04:32:00,60.6,59.1,29.67,SSW,198,1.4,3.5,95,0.02,RA,,0.33,0.0,WeatherDisplay:10.37,2013-07-03 02:32:00,
2013-07-03 04:38:00,60.6,59.1,29.67,SSW,198,0.0,2.3,95,0.02,BKN,,0.33,0.0,WeatherDisplay:10.37,2013-07-03 02:38:00,
2013-07-03 04:43:00,60.5,59.0,29.67,SSW,198,3.2,4.0,95,0.02,BKN,,0.33,0.0,WeatherDisplay:10.37,2013-07-03 02:43:00,
2013-07-03 04:46:00,60.5,59.0,29.67,SSW,203,2.6,6.0,95,0.02,BKN,,0.33,0.0,WeatherDisplay:10.37,2013-07-03 02:46:00,
2013-07-03 04:51:00,60.4,58.9,29.67,SSW,203,2.8,4.6,95,0.02,BKN,,0.33,0.0,WeatherDisplay:10.37,2013-07-03 02:51:00,
2013-07-03 04:57:00,60.4,58.9,29.67,SW,224,2.6,4.6,95,0.02,BKN,,0.33,0.0,WeatherDisplay:10.37,2013-07-03 02:57:00,
2013-07-03 05:02:00,60.3,59.1,29.67,SW,225,4.1,5.8,96,0.01,CLR,,0.33,0.0,WeatherDisplay:10.37,2013-07-03 03:02:00,
2013-07-03 05:08:00,60.3,59.1,29.67,SW,224,3.2,5.8,96,0.01,CLR,,0.33,0.0,WeatherDisplay:10.37,2013-07-03 03:08:00,
2013-07-03 05:13:00,60.2,58.7,29.67,SW,224,2.7,5.8,95,0.00,CLR,,0.33,0.0,WeatherDisplay:10.37,2013-07-03 03:13:00,
2013-07-03 05:18:00,60.2,58.7,29.67,SW,224,3.2,4.6,95,0.00,CLR,,0.33,0.0,WeatherDisplay:10.37,2013-07-03 03:18:00,
2013-07-03 05:21:00,60.1,58.6,29.66,SW,224,0.7,3.5,95,0.00,CLR,,0.33,0.0,WeatherDisplay:10.37,2013-07-03 03:21:00,
2013-07-03 05:26:00,60.1,58.6,29.66,SW,224,0.3,4.0,95,0.00,CLR,,0.33,0.0,WeatherDisplay:10.37,2013-07-03 03:26:00,
2013-07-03 05:32:00,60.1,58.9,29.66,SW,224,2.4,3.5,96,0.00,FEW,,0.33,0.0,WeatherDisplay:10.37,2013-07-03 03:32:00,
2013-07-03 05:37:00,60.0,58.8,29.66,SW,224,0.0,0.0,96,0.00,FEW,,0.33,5.0,WeatherDisplay:10.37,2013-07-03 03:37:00,
2013-07-03 05:40:00,60.0,58.8,29.66,SW,224,0.0,0.0,96,0.00,FEW,,0.33,9.0,WeatherDisplay:10.37,2013-07-03 03:40:00,
2013-07-03 05:46:00,59.9,58.7,29.66,SW,224,0.0,0.0,96,0.00,FEW,,0.33,18.0,WeatherDisplay:10.37,2013-07-03 03:46:00,
2013-07-03 05:49:00,59.9,58.7,29.66,SW,224,0.0,0.0,96,0.00,FEW,,0.33,21.0,WeatherDisplay:10.37,2013-07-03 03:49:00,
2013-07-03 05:54:00,59.8,58.6,29.66,SW,224,0.0,0.0,96,0.00,FEW,,0.33,18.0,WeatherDisplay:10.37,2013-07-03 03:54:00,
2013-07-03 05:59:00,59.9,58.7,29.66,SW,224,0.0,0.0,96,0.00,FEW,,0.33,16.0,WeatherDisplay:10.37,2013-07-03 03:59:00,
2013-07-03 06:00:00,59.9,58.7,29.66,SW,224,0.0,0.0,96,0.00,FEW,,0.33,16.0,WeatherDisplay:10.37,2013-07-03 04:00:00,
2013-07-03 06:01:00,59.9,58.7,29.66,SW,224,0.0,0.0,96,0.00,FEW,,0.33,16.0,WeatherDisplay:10.37,2013-07-03 04:01:00,
2013-07-03 06:03:00,59.9,58.7,29.66,SW,224,0.0,0.0,96,0.00,BKN,,0.33,19.0,WeatherDisplay:10.37,2013-07-03 04:03:00,
2013-07-03 06:04:00,59.9,58.7,29.66,SW,224,0.0,0.0,96,0.00,BKN,,0.33,21.0,WeatherDisplay:10.37,2013-07-03 04:04:00,
2013-07-03 06:09:00,59.9,58.7,29.66,SW,224,0.0,0.0,96,0.00,BKN,,0.33,28.0,WeatherDisplay:10.37,2013-07-03 04:09:00,
2013-07-03 06:14:00,59.8,58.6,29.66,SW,221,0.0,0.0,96,0.00,BKN,,0.33,26.0,WeatherDisplay:10.37,2013-07-03 04:14:00,
2013-07-03 06:19:00,59.8,58.6,29.66,SSW,198,0.0,0.0,96,0.00,BKN,,0.33,23.0,WeatherDisplay:10.37,2013-07-03 04:19:00,
2013-07-03 06:24:00,59.8,58.6,29.66,SSW,197,0.0,0.0,96,0.00,BKN,,0.33,16.0,WeatherDisplay:10.37,2013-07-03 04:24:00,
2013-07-03 06:29:00,59.8,58.6,29.66,SSW,198,1.2,3.5,96,0.00,BKN,,0.33,11.0,WeatherDisplay:10.37,2013-07-03 04:29:00,
2013-07-03 06:31:00,59.8,58.6,29.66,SSW,197,1.7,2.3,96,0.00,BKN,,0.33,11.0,WeatherDisplay:10.37,2013-07-03 04:31:00,
2013-07-03 06:32:00,59.8,58.6,29.66,SSW,198,0.3,3.5,96,0.00,OVC,,0.33,11.0,WeatherDisplay:10.37,2013-07-03 04:32:00,
2013-07-03 06:37:00,59.6,58.4,29.66,WSW,237,0.2,4.0,96,0.00,OVC,,0.33,14.0,WeatherDisplay:10.37,2013-07-03 04:37:00,
2013-07-03 06:42:00,59.6,58.4,29.66,WSW,258,1.4,3.5,96,0.00,OVC,,0.33,11.0,WeatherDisplay:10.37,2013-07-03 04:42:00,
2013-07-03 06:45:00,59.6,58.4,29.66,WSW,258,0.9,3.5,96,0.00,OVC,,0.33,16.0,WeatherDisplay:10.37,2013-07-03 04:45:00,
2013-07-03 06:46:00,59.6,58.4,29.66,WSW,258,2.2,3.5,96,0.00,OVC,,0.33,18.0,WeatherDisplay:10.37,2013-07-03 04:46:00,
2013-07-03 06:51:00,59.6,58.4,29.66,WSW,257,0.6,2.3,96,0.00,OVC,,0.33,25.0,WeatherDisplay:10.37,2013-07-03 04:51:00,
2013-07-03 06:53:00,59.5,58.3,29.66,WSW,257,0.7,2.3,96,0.00,OVC,,0.33,26.0,WeatherDisplay:10.37,2013-07-03 04:53:00,
2013-07-03 06:58:00,59.5,58.3,29.66,WSW,253,1.9,3.5,96,0.00,OVC,,0.33,32.0,WeatherDisplay:10.37,2013-07-03 04:58:00,
2013-07-03 07:03:00,59.4,58.2,29.66,WSW,253,1.1,3.5,96,0.00,OVC,,0.33,30.0,WeatherDisplay:10.37,2013-07-03 05:03:00,
2013-07-03 07:07:00,59.4,58.2,29.66,West,277,1.0,3.5,96,0.00,OVC,,0.33,25.0,WeatherDisplay:10.37,2013-07-03 05:07:00,
2013-07-03 07:12:00,59.5,58.3,29.66,West,267,1.8,3.5,96,0.00,OVC,,0.33,25.0,WeatherDisplay:10.37,2013-07-03 05:12:00,
2013-07-03 07:17:00,59.5,58.3,29.66,West,262,3.4,8.1,96,0.00,OVC,,0.33,28.0,WeatherDisplay:10.37,2013-07-03 05:17:00,
2013-07-03 07:19:00,59.5,58.3,29.67,West,262,0.4,6.9,96,0.00,OVC,,0.33,33.0,WeatherDisplay:10.37,2013-07-03 05:19:00,
2013-07-03 07:24:00,59.4,58.2,29.67,West,263,1.8,4.6,96,0.00,OVC,,0.33,30.0,WeatherDisplay:10.37,2013-07-03 05:24:00,
2013-07-03 07:29:00,59.3,58.1,29.67,West,262,1.8,4.0,96,0.00,OVC,,0.33,74.0,WeatherDisplay:10.37,2013-07-03 05:29:00,
2013-07-03 07:34:00,59.3,58.1,29.67,SW,215,5.3,10.4,96,0.00,OVC,,0.33,95.0,WeatherDisplay:10.37,2013-07-03 05:34:00,
2013-07-03 07:39:00,59.1,57.6,29.67,SW,230,5.2,5.2,95,0.00,OVC,,0.33,130.0,WeatherDisplay:10.37,2013-07-03 05:39:00,
2013-07-03 07:44:00,59.1,57.6,29.67,SW,230,4.1,6.0,95,0.00,OVC,,0.33,132.0,WeatherDisplay:10.37,2013-07-03 05:44:00,
2013-07-03 07:50:00,59.1,57.6,29.67,SW,216,4.9,6.0,95,0.00,OVC,,0.33,114.0,WeatherDisplay:10.37,2013-07-03 05:50:00,
2013-07-03 07:54:00,59.1,57.6,29.67,SSW,213,2.9,6.9,95,0.00,OVC,,0.33,86.0,WeatherDisplay:10.37,2013-07-03 05:54:00,
2013-07-03 07:58:00,59.1,57.6,29.67,SW,221,5.2,9.2,95,0.00,OVC,,0.33,77.0,WeatherDisplay:10.37,2013-07-03 05:58:00,
2013-07-03 08:03:00,59.0,57.3,29.68,WSW,238,6.2,10.4,94,0.00,FEW,,0.33,49.0,WeatherDisplay:10.37,2013-07-03 06:03:00,
2013-07-03 08:08:00,59.1,57.4,29.68,WSW,242,6.2,8.1,94,0.00,FEW,,0.33,46.0,WeatherDisplay:10.37,2013-07-03 06:08:00,
2013-07-03 08:13:00,58.9,57.2,29.68,SW,228,6.5,10.4,94,0.00,FEW,,0.33,56.0,WeatherDisplay:10.37,2013-07-03 06:13:00,
2013-07-03 08:16:00,58.9,57.2,29.68,SSW,213,5.4,6.9,94,0.00,FEW,,0.33,42.0,WeatherDisplay:10.37,2013-07-03 06:16:00,
2013-07-03 08:19:00,58.8,57.1,29.68,SW,225,1.0,3.5,94,0.00,FEW,,0.33,40.0,WeatherDisplay:10.37,2013-07-03 06:19:00,
2013-07-03 08:24:00,58.9,57.2,29.68,SSW,213,4.2,4.2,94,0.00,FEW,,0.33,58.0,WeatherDisplay:10.37,2013-07-03 06:24:00,
2013-07-03 08:27:00,58.8,57.1,29.68,SW,222,1.3,3.5,94,0.00,FEW,,0.33,54.0,WeatherDisplay:10.37,2013-07-03 06:27:00,
2013-07-03 08:32:00,58.8,57.4,29.68,SW,221,2.6,3.5,95,0.00,FEW,,0.33,58.0,WeatherDisplay:10.37,2013-07-03 06:32:00,
2013-07-03 08:37:00,58.9,57.5,29.68,SW,222,1.2,5.8,95,0.00,FEW,,0.33,47.0,WeatherDisplay:10.37,2013-07-03 06:37:00,
2013-07-03 08:42:00,58.9,57.5,29.68,SW,215,1.7,5.8,95,0.00,FEW,,0.33,69.0,WeatherDisplay:10.37,2013-07-03 06:42:00,
2013-07-03 08:44:00,58.9,57.5,29.68,SW,215,3.0,4.0,95,0.00,FEW,,0.33,56.0,WeatherDisplay:10.37,2013-07-03 06:44:00,
2013-07-03 08:50:00,58.7,57.3,29.68,SW,216,0.6,2.3,95,0.00,FEW,,0.33,69.0,WeatherDisplay:10.37,2013-07-03 06:50:00,
2013-07-03 08:55:00,58.7,57.3,29.68,SW,217,4.4,5.8,95,0.00,FEW,,0.33,74.0,WeatherDisplay:10.37,2013-07-03 06:55:00,
2013-07-03 09:00:00,58.8,57.4,29.69,SW,216,1.2,2.3,95,0.00,FEW,,0.33,63.0,WeatherDisplay:10.37,2013-07-03 07:00:00,
2013-07-03 09:05:00,58.9,57.5,29.69,SW,215,0.1,4.0,95,0.00,SCT,,0.33,107.0,WeatherDisplay:10.37,2013-07-03 07:05:00,
2013-07-03 09:10:00,59.1,57.6,29.69,SW,215,2.9,4.6,95,0.00,SCT,,0.33,132.0,WeatherDisplay:10.37,2013-07-03 07:10:00,
2013-07-03 09:15:00,59.3,57.8,29.69,SSW,209,5.3,8.1,95,0.01,RA,,0.34,116.0,WeatherDisplay:10.37,2013-07-03 07:15:00,
2013-07-03 09:18:00,59.4,57.9,29.69,SSW,208,0.5,8.1,95,0.01,RA,,0.34,111.0,WeatherDisplay:10.37,2013-07-03 07:18:00,
2013-07-03 09:24:00,59.5,58.0,29.69,SSW,212,2.1,4.6,95,0.01,RA,,0.34,127.0,WeatherDisplay:10.37,2013-07-03 07:24:00,
2013-07-03 09:30:00,59.5,58.0,29.69,SSW,207,3.2,8.1,95,0.01,RA,,0.34,174.0,WeatherDisplay:10.37,2013-07-03 07:30:00,
2013-07-03 09:35:00,59.6,58.1,29.69,West,279,1.7,6.9,95,0.01,RA,,0.34,88.0,WeatherDisplay:10.37,2013-07-03 07:35:00,
2013-07-03 09:38:00,59.6,58.1,29.69,SW,219,4.5,8.1,95,0.01,SCT,,0.34,102.0,WeatherDisplay:10.37,2013-07-03 07:38:00,
2013-07-03 09:43:00,59.6,58.1,29.69,SSW,209,4.1,4.6,95,0.01,SCT,,0.34,100.0,WeatherDisplay:10.37,2013-07-03 07:43:00,
2013-07-03 09:49:00,59.5,58.0,29.69,SSW,207,4.2,6.0,95,0.02,RA,,0.35,81.0,WeatherDisplay:10.37,2013-07-03 07:49:00,
2013-07-03 09:50:00,59.5,58.0,29.69,SSW,207,4.1,5.8,95,0.02,RA,,0.35,95.0,WeatherDisplay:10.37,2013-07-03 07:50:00,
2013-07-03 09:55:00,59.5,58.0,29.69,SW,217,5.4,10.4,95,0.02,RA,,0.35,91.0,WeatherDisplay:10.37,2013-07-03 07:55:00,
2013-07-03 10:00:00,59.5,58.0,29.69,West,261,3.9,8.1,95,0.02,RA,,0.35,113.0,WeatherDisplay:10.37,2013-07-03 08:00:00,
2013-07-03 10:02:00,59.4,57.9,29.69,SSW,211,4.6,7.0,95,0.02,RA,,0.35,116.0,WeatherDisplay:10.37,2013-07-03 08:02:00,
2013-07-03 10:06:00,59.4,57.9,29.69,SSW,209,6.0,6.9,95,0.02,RA,,0.35,135.0,WeatherDisplay:10.37,2013-07-03 08:06:00,
2013-07-03 10:09:00,59.5,58.0,29.69,SSW,205,2.1,3.5,95,0.02,RA,,0.35,97.0,WeatherDisplay:10.37,2013-07-03 08:09:00,
2013-07-03 10:14:00,59.4,57.9,29.69,SSW,206,3.1,9.2,95,0.02,RA,,0.35,65.0,WeatherDisplay:10.37,2013-07-03 08:14:00,
2013-07-03 10:18:00,59.4,57.9,29.69,SSW,200,3.7,8.1,95,0.02,RA,,0.35,62.0,WeatherDisplay:10.37,2013-07-03 08:18:00,
2013-07-03 10:23:00,59.3,57.8,29.69,SSW,203,1.7,3.5,95,0.02,-RA,,0.35,67.0,WeatherDisplay:10.37,2013-07-03 08:23:00,
2013-07-03 10:28:00,59.4,57.9,29.69,SSW,196,1.7,4.6,95,0.02,-RA,,0.35,69.0,WeatherDisplay:10.37,2013-07-03 08:28:00,
2013-07-03 10:33:00,59.4,57.9,29.69,SSW,203,4.9,9.2,95,0.02,-RA,,0.35,67.0,WeatherDisplay:10.37,2013-07-03 08:33:00,
2013-07-03 10:38:00,59.4,57.9,29.69,SSW,205,5.1,9.2,95,0.02,-RA,,0.35,65.0,WeatherDisplay:10.37,2013-07-03 08:38:00,
2013-07-03 10:39:00,59.4,57.9,29.69,SSW,203,5.3,9.2,95,0.02,-RA,,0.35,63.0,WeatherDisplay:10.37,2013-07-03 08:39:00,
2013-07-03 10:45:00,59.3,57.8,29.69,SSW,213,1.8,11.5,95,0.02,-RA,,0.35,62.0,WeatherDisplay:10.37,2013-07-03 08:45:00,
2013-07-03 10:51:00,59.4,57.9,29.70,SSW,206,6.3,9.2,95,0.01,-RA,,0.35,91.0,WeatherDisplay:10.37,2013-07-03 08:51:00,
2013-07-03 10:54:00,59.5,58.0,29.70,SW,216,7.3,10.4,95,0.01,-RA,,0.35,134.0,WeatherDisplay:10.37,2013-07-03 08:54:00,
2013-07-03 10:55:00,59.5,58.0,29.70,SW,216,6.9,10.4,95,0.01,-RA,,0.35,134.0,WeatherDisplay:10.37,2013-07-03 08:55:00,
2013-07-03 11:00:00,59.6,58.1,29.70,SSW,201,4.1,10.0,95,0.01,-RA,,0.35,109.0,WeatherDisplay:10.37,2013-07-03 09:00:00,
2013-07-03 11:05:00,59.6,58.1,29.70,SSW,203,4.9,9.2,95,0.00,SCT,,0.35,98.0,WeatherDisplay:10.37,2013-07-03 09:05:00,
2013-07-03 11:10:00,59.7,58.2,29.70,SSW,203,5.8,8.1,95,0.00,SCT,,0.35,104.0,WeatherDisplay:10.37,2013-07-03 09:10:00,
2013-07-03 11:15:00,59.8,58.3,29.70,SSW,210,6.6,11.5,95,0.00,SCT,,0.35,104.0,WeatherDisplay:10.37,2013-07-03 09:15:00,
2013-07-03 11:20:00,59.8,58.3,29.70,SSW,195,4.0,9.2,95,0.00,SCT,,0.35,91.0,WeatherDisplay:10.37,2013-07-03 09:20:00,
2013-07-03 11:25:00,59.9,58.4,29.70,SSW,197,0.6,3.5,95,0.01,RA,,0.36,135.0,WeatherDisplay:10.37,2013-07-03 09:25:00,
2013-07-03 11:32:00,60.0,58.5,29.70,SW,225,3.2,5.8,95,0.01,RA,,0.36,107.0,WeatherDisplay:10.37,2013-07-03 09:32:00,
2013-07-03 11:37:00,60.1,58.6,29.71,SW,219,2.6,4.6,95,0.01,RA,,0.36,95.0,WeatherDisplay:10.37,2013-07-03 09:37:00,
2013-07-03 11:41:00,60.1,58.6,29.71,SW,223,3.6,4.6,95,0.01,RA,,0.36,76.0,WeatherDisplay:10.37,2013-07-03 09:41:00,
2013-07-03 11:46:00,60.1,58.6,29.71,WSW,247,4.2,8.1,95,0.01,RA,,0.36,156.0,WeatherDisplay:10.37,2013-07-03 09:46:00,
2013-07-03 11:49:00,60.2,58.7,29.71,SW,223,3.3,6.9,95,0.01,BKN,,0.36,213.0,WeatherDisplay:10.37,2013-07-03 09:49:00,
2013-07-03 11:50:00,60.2,58.7,29.71,SW,214,1.4,4.6,95,0.01,BKN,,0.36,195.0,WeatherDisplay:10.37,2013-07-03 09:50:00,
2013-07-03 11:56:00,60.3,58.8,29.71,South,191,2.7,5.8,95,0.01,BKN,,0.36,148.0,WeatherDisplay:10.37,2013-07-03 09:56:00,
2013-07-03 12:01:00,60.4,58.9,29.71,SSW,203,3.8,5.8,95,0.01,BKN,,0.36,192.0,WeatherDisplay:10.37,2013-07-03 10:01:00,
2013-07-03 12:05:00,60.4,58.6,29.71,SW,227,4.3,8.1,94,0.01,BKN,,0.36,137.0,WeatherDisplay:10.37,2013-07-03 10:05:00,
2013-07-03 12:07:00,60.5,58.7,29.71,WSW,256,5.8,11.5,94,0.01,BKN,,0.36,128.0,WeatherDisplay:10.37,2013-07-03 10:07:00,
2013-07-03 12:12:00,60.7,58.9,29.71,SW,232,2.3,5.0,94,0.01,BKN,,0.36,84.0,WeatherDisplay:10.37,2013-07-03 10:12:00,
2013-07-03 12:17:00,60.8,59.0,29.72,SW,225,3.8,5.8,94,0.01,BKN,,0.36,102.0,WeatherDisplay:10.37,2013-07-03 10:17:00,
2013-07-03 12:23:00,60.7,58.9,29.72,SW,228,2.9,6.9,94,0.00,BKN,,0.36,102.0,WeatherDisplay:10.37,2013-07-03 10:23:00,
2013-07-03 12:28:00,60.8,59.0,29.72,SW,229,3.7,4.6,94,0.00,BKN,,0.36,84.0,WeatherDisplay:10.37,2013-07-03 10:28:00,
2013-07-03 12:31:00,60.8,58.7,29.72,SW,223,5.8,10.4,93,0.00,BKN,,0.36,107.0,WeatherDisplay:10.37,2013-07-03 10:31:00,
2013-07-03 12:36:00,60.8,58.7,29.73,SSW,208,3.3,5.8,93,0.00,BKN,,0.36,134.0,WeatherDisplay:10.37,2013-07-03 10:36:00,
2013-07-03 12:42:00,61.1,59.3,29.72,SSW,211,4.2,5.8,94,0.00,BKN,,0.36,288.0,WeatherDisplay:10.37,2013-07-03 10:42:00,
2013-07-03 12:47:00,61.5,59.7,29.73,SW,214,2.7,4.0,94,0.00,BKN,,0.36,144.0,WeatherDisplay:10.37,2013-07-03 10:47:00,
2013-07-03 12:49:00,61.5,59.4,29.73,SW,221,5.5,11.5,93,0.00,BKN,,0.36,107.0,WeatherDisplay:10.37,2013-07-03 10:49:00,
2013-07-03 12:54:00,61.5,59.4,29.73,SSW,212,5.3,11.5,93,0.00,BKN,,0.36,67.0,WeatherDisplay:10.37,2013-07-03 10:54:00,
2013-07-03 12:55:00,61.5,59.4,29.73,SSW,205,3.7,10.4,93,0.00,BKN,,0.36,62.0,WeatherDisplay:10.37,2013-07-03 10:55:00,
2013-07-03 12:57:00,61.5,59.1,29.73,WSW,251,8.7,11.5,92,0.00,BKN,,0.36,49.0,WeatherDisplay:10.37,2013-07-03 10:57:00,
2013-07-03 13:02:00,61.0,58.6,29.73,WSW,238,5.9,12.7,92,0.00,BKN,,0.36,58.0,WeatherDisplay:10.37,2013-07-03 11:02:00,
2013-07-03 13:08:00,60.4,58.0,29.74,WSW,255,6.4,9.2,92,0.00,BKN,,0.36,53.0,WeatherDisplay:10.37,2013-07-03 11:08:00,
2013-07-03 13:09:00,60.4,58.0,29.74,WSW,240,7.2,11.5,92,0.00,BKN,,0.36,51.0,WeatherDisplay:10.37,2013-07-03 11:09:00,
2013-07-03 13:14:00,60.1,57.7,29.74,SW,230,7.5,10.4,92,0.00,BKN,,0.36,56.0,WeatherDisplay:10.37,2013-07-03 11:14:00,
2013-07-03 13:19:00,60.0,58.0,29.74,WSW,246,7.2,10.0,93,0.00,BKN,,0.36,77.0,WeatherDisplay:10.37,2013-07-03 11:19:00,
2013-07-03 13:23:00,60.0,58.0,29.74,WSW,241,4.6,5.8,93,0.00,BKN,,0.36,90.0,WeatherDisplay:10.37,2013-07-03 11:23:00,
2013-07-03 13:28:00,60.0,58.0,29.74,WSW,246,6.7,10.0,93,0.00,BKN,,0.36,151.0,WeatherDisplay:10.37,2013-07-03 11:28:00,
2013-07-03 13:34:00,59.9,58.1,29.74,WSW,255,4.6,7.0,94,0.00,-RA,,0.36,160.0,WeatherDisplay:10.37,2013-07-03 11:34:00,
2013-07-03 13:39:00,60.1,58.3,29.74,WSW,253,4.5,5.8,94,0.00,-RA,,0.36,236.0,WeatherDisplay:10.37,2013-07-03 11:39:00,
2013-07-03 13:45:00,60.3,58.5,29.75,WSW,238,7.7,10.4,94,0.00,-RA,,0.36,149.0,WeatherDisplay:10.37,2013-07-03 11:45:00,
2013-07-03 13:50:00,60.2,58.4,29.75,WSW,237,7.8,10.4,94,0.00,-RA,,0.36,107.0,WeatherDisplay:10.37,2013-07-03 11:50:00,
2013-07-03 13:56:00,60.2,58.4,29.75,South,185,4.5,9.2,94,0.00,-RA,,0.36,102.0,WeatherDisplay:10.37,2013-07-03 11:56:00,
2013-07-03 14:00:00,60.0,58.2,29.75,South,185,6.3,9.2,94,0.00,-RA,,0.36,155.0,WeatherDisplay:10.37,2013-07-03 12:00:00,
2013-07-03 14:02:00,60.0,58.2,29.75,WSW,252,8.6,11.5,94,0.00,BKN,,0.36,174.0,WeatherDisplay:10.37,2013-07-03 12:02:00,
2013-07-03 14:07:00,60.2,58.4,29.75,WSW,241,4.0,6.9,94,0.00,BKN,,0.36,255.0,WeatherDisplay:10.37,2013-07-03 12:07:00,
2013-07-03 14:12:00,60.6,58.8,29.76,WSW,246,5.6,8.1,94,0.00,BKN,,0.36,313.0,WeatherDisplay:10.37,2013-07-03 12:12:00,
2013-07-03 14:14:00,60.7,58.9,29.76,SW,230,4.9,8.1,94,0.00,BKN,,0.36,302.0,WeatherDisplay:10.37,2013-07-03 12:14:00,
2013-07-03 14:16:00,60.9,59.1,29.76,WSW,245,7.0,8.1,94,0.00,BKN,,0.36,248.0,WeatherDisplay:10.37,2013-07-03 12:16:00,
2013-07-03 14:21:00,60.9,59.1,29.76,WSW,251,7.6,9.2,94,0.00,BKN,,0.36,185.0,WeatherDisplay:10.37,2013-07-03 12:21:00,
2013-07-03 14:28:00,60.8,58.7,29.76,WSW,254,5.5,11.5,93,0.00,BKN,,0.36,165.0,WeatherDisplay:10.37,2013-07-03 12:28:00,
2013-07-03 14:33:00,60.8,58.7,29.76,WSW,248,7.1,11.5,93,0.00,-DZ,,0.36,316.0,WeatherDisplay:10.37,2013-07-03 12:33:00,
2013-07-03 14:38:00,61.1,59.0,29.76,WSW,252,9.2,11.5,93,0.00,-DZ,,0.36,204.0,WeatherDisplay:10.37,2013-07-03 12:38:00,
2013-07-03 14:43:00,61.1,59.0,29.76,West,271,7.0,11.5,93,0.00,-DZ,,0.36,332.0,WeatherDisplay:10.37,2013-07-03 12:43:00,
2013-07-03 14:46:00,61.1,58.7,29.77,WSW,244,5.4,6.9,92,0.00,-DZ,,0.36,206.0,WeatherDisplay:10.37,2013-07-03 12:46:00,
2013-07-03 14:51:00,61.3,58.9,29.77,West,259,6.8,10.4,92,0.00,-DZ,,0.36,176.0,WeatherDisplay:10.37,2013-07-03 12:51:00,
2013-07-03 14:56:00,61.2,58.5,29.77,SW,230,9.4,12.7,91,0.00,-DZ,,0.36,169.0,WeatherDisplay:10.37,2013-07-03 12:56:00,
2013-07-03 15:02:00,61.1,58.4,29.77,WSW,248,5.9,10.0,91,0.00,BKN,,0.36,214.0,WeatherDisplay:10.37,2013-07-03 13:02:00,
2013-07-03 15:07:00,61.2,58.5,29.77,West,261,6.9,9.2,91,0.00,BKN,,0.36,302.0,WeatherDisplay:10.37,2013-07-03 13:07:00,
2013-07-03 15:12:00,61.3,58.6,29.77,West,259,5.5,9.0,91,0.00,BKN,,0.36,193.0,WeatherDisplay:10.37,2013-07-03 13:12:00,
2013-07-03 15:17:00,61.3,58.6,29.78,WSW,246,6.3,10.4,91,0.00,BKN,,0.36,155.0,WeatherDisplay:10.37,2013-07-03 13:17:00,
2013-07-03 15:22:00,61.2,58.5,29.78,West,266,5.7,9.2,91,0.00,BKN,,0.36,137.0,WeatherDisplay:10.37,2013-07-03 13:22:00,
2013-07-03 15:25:00,61.1,58.4,29.78,West,260,6.3,9.2,91,0.00,BKN,,0.36,190.0,WeatherDisplay:10.37,2013-07-03 13:25:00,
2013-07-03 15:30:00,61.0,58.3,29.78,WSW,253,5.8,9.2,91,0.00,BKN,,0.36,251.0,WeatherDisplay:10.37,2013-07-03 13:30:00,
2013-07-03 15:36:00,61.2,58.5,29.78,WSW,257,5.1,6.9,91,0.00,OVC,,0.36,216.0,WeatherDisplay:10.37,2013-07-03 13:36:00,
2013-07-03 15:37:00,61.2,58.8,29.78,WSW,257,2.9,4.6,92,0.00,OVC,,0.36,227.0,WeatherDisplay:10.37,2013-07-03 13:37:00,
2013-07-03 15:43:00,61.4,59.0,29.79,WSW,257,6.7,9.2,92,0.00,OVC,,0.36,169.0,WeatherDisplay:10.37,2013-07-03 13:43:00,
2013-07-03 15:48:00,61.2,58.5,29.79,West,265,7.1,9.2,91,0.00,OVC,,0.36,165.0,WeatherDisplay:10.37,2013-07-03 13:48:00,
2013-07-03 15:53:00,61.2,58.5,29.79,WSW,256,7.6,11.5,91,0.00,OVC,,0.36,211.0,WeatherDisplay:10.37,2013-07-03 13:53:00,
2013-07-03 15:58:00,61.3,58.6,29.79,West,261,6.7,9.2,91,0.00,OVC,,0.36,200.0,WeatherDisplay:10.37,2013-07-03 13:58:00,
2013-07-03 16:03:00,61.5,58.8,29.79,WSW,255,3.0,4.6,91,0.00,BKN,,0.36,165.0,WeatherDisplay:10.37,2013-07-03 14:03:00,
2013-07-03 16:06:00,61.7,59.3,29.79,WSW,242,8.0,10.4,92,0.00,BKN,,0.36,230.0,WeatherDisplay:10.37,2013-07-03 14:06:00,
2013-07-03 16:09:00,61.8,59.1,29.80,West,259,6.8,9.2,91,0.00,BKN,,0.36,216.0,WeatherDisplay:10.37,2013-07-03 14:09:00,
2013-07-03 16:14:00,61.9,59.2,29.80,West,261,8.1,13.0,91,0.00,BKN,,0.36,276.0,WeatherDisplay:10.37,2013-07-03 14:14:00,
2013-07-03 16:17:00,62.0,59.0,29.80,West,259,6.3,11.5,90,0.00,BKN,,0.36,287.0,WeatherDisplay:10.37,2013-07-03 14:17:00,
2013-07-03 16:22:00,62.2,59.2,29.80,West,261,5.0,11.5,90,0.00,BKN,,0.36,287.0,WeatherDisplay:10.37,2013-07-03 14:22:00,
2013-07-03 16:27:00,62.5,59.5,29.80,WSW,240,5.8,6.9,90,0.00,BKN,,0.36,246.0,WeatherDisplay:10.37,2013-07-03 14:27:00,
2013-07-03 16:30:00,62.6,59.6,29.80,WSW,239,9.3,11.5,90,0.00,BKN,,0.36,188.0,WeatherDisplay:10.37,2013-07-03 14:30:00,
2013-07-03 16:35:00,62.6,59.3,29.81,WSW,251,7.7,10.4,89,0.00,OVC,,0.36,165.0,WeatherDisplay:10.37,2013-07-03 14:35:00,
2013-07-03 16:38:00,62.5,59.2,29.81,WSW,250,8.5,11.5,89,0.00,OVC,,0.36,165.0,WeatherDisplay:10.37,2013-07-03 14:38:00,
2013-07-03 16:41:00,62.4,59.1,29.81,WSW,257,6.7,9.2,89,0.00,OVC,,0.36,139.0,WeatherDisplay:10.37,2013-07-03 14:41:00,
2013-07-03 16:47:00,62.4,59.1,29.81,WSW,253,5.9,8.1,89,0.00,OVC,,0.36,125.0,WeatherDisplay:10.37,2013-07-03 14:47:00,
2013-07-03 16:51:00,62.3,59.0,29.81,West,259,5.9,10.4,89,0.00,OVC,,0.36,118.0,WeatherDisplay:10.37,2013-07-03 14:51:00,
2013-07-03 16:56:00,62.2,58.9,29.82,WSW,248,8.3,11.5,89,0.00,OVC,,0.36,91.0,WeatherDisplay:10.37,2013-07-03 14:56:00,
2013-07-03 16:59:00,62.1,58.8,29.82,WSW,250,6.9,11.5,89,0.00,OVC,,0.36,84.0,WeatherDisplay:10.37,2013-07-03 14:59:00,
2013-07-03 17:04:00,62.0,58.7,29.82,WSW,250,10.4,12.7,89,0.00,OVC,,0.36,100.0,WeatherDisplay:10.37,2013-07-03 15:04:00,
2013-07-03 17:06:00,61.9,58.6,29.82,WSW,251,7.6,11.5,89,0.00,OVC,,0.36,118.0,WeatherDisplay:10.37,2013-07-03 15:06:00,
2013-07-03 17:08:00,61.9,58.6,29.82,WSW,257,7.1,11.0,89,0.00,OVC,,0.36,116.0,WeatherDisplay:10.37,2013-07-03 15:08:00,
2013-07-03 17:13:00,61.8,58.5,29.82,West,274,9.1,11.5,89,0.00,OVC,,0.36,128.0,WeatherDisplay:10.37,2013-07-03 15:13:00,
2013-07-03 17:15:00,61.8,58.5,29.82,WNW,293,8.9,11.5,89,0.00,OVC,,0.36,134.0,WeatherDisplay:10.37,2013-07-03 15:15:00,
2013-07-03 17:21:00,61.8,58.5,29.82,WSW,251,6.6,11.5,89,0.00,OVC,,0.36,186.0,WeatherDisplay:10.37,2013-07-03 15:21:00,
2013-07-03 17:26:00,61.8,58.5,29.83,West,259,5.8,8.1,89,0.00,OVC,,0.36,181.0,WeatherDisplay:10.37,2013-07-03 15:26:00,
2013-07-03 17:29:00,61.9,58.6,29.82,West,265,5.2,9.2,89,0.00,OVC,,0.36,250.0,WeatherDisplay:10.37,2013-07-03 15:29:00,
2013-07-03 17:34:00,62.2,58.9,29.83,West,263,6.2,9.2,89,0.00,OVC,,0.36,285.0,WeatherDisplay:10.37,2013-07-03 15:34:00,
2013-07-03 17:40:00,62.4,59.1,29.83,WSW,250,7.5,11.5,89,0.00,OVC,,0.36,323.0,WeatherDisplay:10.37,2013-07-03 15:40:00,
2013-07-03 17:45:00,62.7,59.1,29.83,WSW,253,6.9,9.2,88,0.00,OVC,,0.36,297.0,WeatherDisplay:10.37,2013-07-03 15:45:00,
2013-07-03 17:50:00,63.2,59.6,29.83,West,263,5.6,7.0,88,0.00,OVC,,0.36,207.0,WeatherDisplay:10.37,2013-07-03 15:50:00,
2013-07-03 17:52:00,63.3,59.7,29.83,WSW,258,5.6,8.1,88,0.00,OVC,,0.36,183.0,WeatherDisplay:10.37,2013-07-03 15:52:00,
2013-07-03 17:57:00,63.4,59.4,29.83,WSW,257,3.6,7.0,87,0.00,OVC,,0.36,207.0,WeatherDisplay:10.37,2013-07-03 15:57:00,
2013-07-03 18:03:00,63.5,59.5,29.83,WSW,255,4.4,6.9,87,0.00,OVC,,0.36,267.0,WeatherDisplay:10.37,2013-07-03 16:03:00,
2013-07-03 18:08:00,63.6,59.6,29.83,WSW,251,5.3,9.2,87,0.00,OVC,,0.36,207.0,WeatherDisplay:10.37,2013-07-03 16:08:00,
2013-07-03 18:13:00,63.7,59.4,29.83,WSW,257,5.7,6.9,86,0.00,OVC,,0.36,229.0,WeatherDisplay:10.37,2013-07-03 16:13:00,
2013-07-03 18:18:00,63.6,59.6,29.83,WSW,240,4.7,8.0,87,0.00,OVC,,0.36,223.0,WeatherDisplay:10.37,2013-07-03 16:18:00,
2013-07-03 18:24:00,63.6,59.3,29.84,WSW,253,5.1,6.9,86,0.00,OVC,,0.36,193.0,WeatherDisplay:10.37,2013-07-03 16:24:00,
2013-07-03 18:29:00,63.5,59.2,29.84,WSW,248,6.0,8.1,86,0.00,OVC,,0.36,167.0,WeatherDisplay:10.37,2013-07-03 16:29:00,
2013-07-03 18:35:00,63.4,59.1,29.84,WSW,257,6.4,8.1,86,0.00,BKN,,0.36,153.0,WeatherDisplay:10.37,2013-07-03 16:35:00,
2013-07-03 18:40:00,63.2,58.9,29.84,West,259,7.9,11.5,86,0.00,BKN,,0.36,148.0,WeatherDisplay:10.37,2013-07-03 16:40:00,
2013-07-03 18:45:00,63.1,58.8,29.85,WSW,253,5.4,9.2,86,0.00,BKN,,0.36,139.0,WeatherDisplay:10.37,2013-07-03 16:45:00,
2013-07-03 18:50:00,63.0,58.7,29.85,West,263,5.5,11.5,86,0.00,BKN,,0.36,111.0,WeatherDisplay:10.37,2013-07-03 16:50:00,
2013-07-03 18:56:00,62.9,59.0,29.85,WSW,248,5.8,9.2,87,0.00,BKN,,0.36,102.0,WeatherDisplay:10.37,2013-07-03 16:56:00,
2013-07-03 19:01:00,62.9,59.0,29.85,WSW,250,4.8,7.0,87,0.00,OVC,,0.36,70.0,WeatherDisplay:10.37,2013-07-03 17:01:00,
2013-07-03 19:07:00,62.9,59.3,29.85,WSW,248,3.8,8.1,88,0.00,OVC,,0.36,53.0,WeatherDisplay:10.37,2013-07-03 17:07:00,
2013-07-03 19:12:00,62.9,59.3,29.85,WSW,254,6.7,8.1,88,0.00,OVC,,0.36,69.0,WeatherDisplay:10.37,2013-07-03 17:12:00,
2013-07-03 19:17:00,62.8,59.2,29.86,WSW,251,5.6,8.0,88,0.00,OVC,,0.36,65.0,WeatherDisplay:10.37,2013-07-03 17:17:00,
2013-07-03 19:22:00,62.7,59.1,29.86,WSW,242,6.2,10.4,88,0.00,OVC,,0.36,70.0,WeatherDisplay:10.37,2013-07-03 17:22:00,
2013-07-03 19:27:00,62.5,58.9,29.86,WSW,254,3.3,6.9,88,0.00,OVC,,0.36,49.0,WeatherDisplay:10.37,2013-07-03 17:27:00,
2013-07-03 19:33:00,62.5,58.9,29.86,WSW,253,5.2,8.1,88,0.00,OVC,,0.36,53.0,WeatherDisplay:10.37,2013-07-03 17:33:00,
2013-07-03 19:38:00,62.5,58.9,29.87,WSW,256,4.3,6.9,88,0.00,OVC,,0.36,44.0,WeatherDisplay:10.37,2013-07-03 17:38:00,
2013-07-03 19:44:00,62.4,58.8,29.87,West,265,5.2,8.1,88,0.00,OVC,,0.36,47.0,WeatherDisplay:10.37,2013-07-03 17:44:00,
2013-07-03 19:49:00,62.4,58.8,29.87,West,267,4.1,5.8,88,0.00,OVC,,0.36,51.0,WeatherDisplay:10.37,2013-07-03 17:49:00,
2013-07-03 19:54:00,62.4,58.8,29.87,West,266,3.3,7.0,88,0.00,OVC,,0.36,44.0,WeatherDisplay:10.37,2013-07-03 17:54:00,
2013-07-03 19:59:00,62.5,58.9,29.88,West,266,4.1,5.8,88,0.00,OVC,,0.36,37.0,WeatherDisplay:10.37,2013-07-03 17:59:00,
2013-07-03 20:04:00,62.5,59.2,29.88,West,266,3.2,4.6,89,0.00,BKN,,0.36,33.0,WeatherDisplay:10.37,2013-07-03 18:04:00,
2013-07-03 20:09:00,62.5,59.2,29.88,West,263,2.6,6.9,89,0.00,BKN,,0.36,44.0,WeatherDisplay:10.37,2013-07-03 18:09:00,
2013-07-03 20:15:00,62.5,59.2,29.88,WSW,245,6.5,9.2,89,0.00,BKN,,0.36,53.0,WeatherDisplay:10.37,2013-07-03 18:15:00,
2013-07-03 20:20:00,62.5,59.2,29.89,WSW,255,4.6,8.1,89,0.00,BKN,,0.36,44.0,WeatherDisplay:10.37,2013-07-03 18:20:00,
2013-07-03 20:26:00,62.4,59.1,29.89,WSW,253,5.7,6.9,89,0.00,BKN,,0.36,40.0,WeatherDisplay:10.37,2013-07-03 18:26:00,
2013-07-03 20:31:00,62.3,59.0,29.89,WSW,250,2.6,6.9,89,0.00,BKN,,0.36,37.0,WeatherDisplay:10.37,2013-07-03 18:31:00,
2013-07-03 20:36:00,62.3,59.0,29.89,WSW,252,4.4,6.0,89,0.00,BKN,,0.36,39.0,WeatherDisplay:10.37,2013-07-03 18:36:00,
2013-07-03 20:42:00,62.3,59.0,29.90,WSW,252,2.0,4.6,89,0.00,BKN,,0.36,35.0,WeatherDisplay:10.37,2013-07-03 18:42:00,
2013-07-03 20:47:00,62.3,59.0,29.90,WSW,250,5.3,6.0,89,0.00,BKN,,0.36,30.0,WeatherDisplay:10.37,2013-07-03 18:47:00,
2013-07-03 20:52:00,62.3,59.0,29.90,WSW,257,2.1,3.5,89,0.00,BKN,,0.36,25.0,WeatherDisplay:10.37,2013-07-03 18:52:00,
2013-07-03 20:57:00,62.3,59.0,29.90,WSW,257,3.6,6.0,89,0.00,BKN,,0.36,21.0,WeatherDisplay:10.37,2013-07-03 18:57:00,
2013-07-03 21:02:00,62.3,59.0,29.90,WSW,257,3.0,6.9,89,0.00,BKN,,0.36,19.0,WeatherDisplay:10.37,2013-07-03 19:02:00,
2013-07-03 21:07:00,62.2,58.9,29.90,WSW,257,1.3,5.8,89,0.00,BKN,,0.36,19.0,WeatherDisplay:10.37,2013-07-03 19:07:00,
2013-07-03 21:13:00,62.2,58.9,29.90,WSW,257,1.4,4.6,89,0.00,BKN,,0.36,12.0,WeatherDisplay:10.37,2013-07-03 19:13:00,
2013-07-03 21:18:00,62.2,58.9,29.91,WSW,256,4.3,6.9,89,0.00,BKN,,0.36,14.0,WeatherDisplay:10.37,2013-07-03 19:18:00,
2013-07-03 21:23:00,62.0,58.7,29.91,WSW,258,6.2,9.2,89,0.00,BKN,,0.36,14.0,WeatherDisplay:10.37,2013-07-03 19:23:00,
2013-07-03 21:28:00,62.0,58.7,29.91,West,261,8.0,8.1,89,0.00,BKN,,0.36,11.0,WeatherDisplay:10.37,2013-07-03 19:28:00,
2013-07-03 21:33:00,61.9,58.6,29.91,West,261,3.2,4.6,89,0.00,BKN,,0.36,11.0,WeatherDisplay:10.37,2013-07-03 19:33:00,
2013-07-03 21:38:00,61.9,58.6,29.92,West,259,2.3,8.1,89,0.00,BKN,,0.36,9.0,WeatherDisplay:10.37,2013-07-03 19:38:00,
2013-07-03 21:43:00,61.8,58.5,29.92,West,259,4.3,4.3,89,0.00,BKN,,0.36,7.0,WeatherDisplay:10.37,2013-07-03 19:43:00,
2013-07-03 21:49:00,61.8,58.5,29.92,West,259,1.0,4.6,89,0.00,BKN,,0.36,5.0,WeatherDisplay:10.37,2013-07-03 19:49:00,
2013-07-03 21:54:00,61.8,58.8,29.92,West,259,4.3,5.8,90,0.00,BKN,,0.36,0.0,WeatherDisplay:10.37,2013-07-03 19:54:00,
2013-07-03 21:59:00,61.8,58.8,29.92,West,259,1.3,2.0,90,0.00,BKN,,0.36,0.0,WeatherDisplay:10.37,2013-07-03 19:59:00,
2013-07-03 22:04:00,61.8,58.8,29.92,West,259,0.0,0.0,90,0.00,BKN,,0.36,0.0,WeatherDisplay:10.37,2013-07-03 20:04:00,
2013-07-03 22:10:00,61.8,58.8,29.93,West,259,0.0,0.0,90,0.00,BKN,,0.36,0.0,WeatherDisplay:10.37,2013-07-03 20:10:00,
2013-07-03 22:15:00,61.8,58.8,29.93,West,259,0.0,0.0,90,0.00,BKN,,0.36,0.0,WeatherDisplay:10.37,2013-07-03 20:15:00,
2013-07-03 22:20:00,61.8,58.8,29.93,West,259,0.0,0.0,90,0.00,BKN,,0.36,0.0,WeatherDisplay:10.37,2013-07-03 20:20:00,
2013-07-03 22:25:00,61.8,58.8,29.93,West,259,0.0,0.0,90,0.00,BKN,,0.36,0.0,WeatherDisplay:10.37,2013-07-03 20:25:00,
2013-07-03 22:30:00,61.8,58.8,29.93,West,259,0.0,0.0,90,0.00,BKN,,0.36,0.0,WeatherDisplay:10.37,2013-07-03 20:30:00,
2013-07-03 22:35:00,61.7,58.7,29.93,West,259,0.0,0.0,90,0.00,BKN,,0.36,0.0,WeatherDisplay:10.37,2013-07-03 20:35:00,
2013-07-03 22:40:00,61.6,58.9,29.93,West,259,0.0,0.0,91,0.00,BKN,,0.36,0.0,WeatherDisplay:10.37,2013-07-03 20:40:00,
2013-07-03 22:45:00,61.5,58.8,29.93,West,259,1.1,3.5,91,0.00,BKN,,0.36,0.0,WeatherDisplay:10.37,2013-07-03 20:45:00,
2013-07-03 22:51:00,61.3,58.6,29.94,West,259,2.7,3.5,91,0.00,BKN,,0.36,0.0,WeatherDisplay:10.37,2013-07-03 20:51:00,
2013-07-03 22:56:00,61.2,58.5,29.94,West,259,0.2,3.5,91,0.00,BKN,,0.36,0.0,WeatherDisplay:10.37,2013-07-03 20:56:00,
2013-07-03 23:01:00,61.1,58.4,29.94,West,259,3.7,4.6,91,0.00,BKN,,0.36,0.0,WeatherDisplay:10.37,2013-07-03 21:01:00,
2013-07-03 23:06:00,60.9,58.2,29.94,West,259,4.0,4.6,91,0.00,BKN,,0.36,0.0,WeatherDisplay:10.37,2013-07-03 21:06:00,
2013-07-03 23:11:00,60.8,58.1,29.94,West,259,2.7,5.0,91,0.00,BKN,,0.36,0.0,WeatherDisplay:10.37,2013-07-03 21:11:00,
2013-07-03 23:17:00,60.6,57.9,29.94,West,259,0.0,0.0,91,0.00,BKN,,0.36,0.0,WeatherDisplay:10.37,2013-07-03 21:17:00,
2013-07-03 23:22:00,60.5,58.1,29.94,West,259,0.0,0.0,92,0.00,BKN,,0.36,0.0,WeatherDisplay:10.37,2013-07-03 21:22:00,
2013-07-03 23:27:00,60.4,58.0,29.94,West,259,0.0,0.0,92,0.00,BKN,,0.36,0.0,WeatherDisplay:10.37,2013-07-03 21:27:00,
2013-07-03 23:32:00,60.3,57.9,29.94,West,259,0.0,0.0,92,0.00,BKN,,0.36,0.0,WeatherDisplay:10.37,2013-07-03 21:32:00,
2013-07-03 23:38:00,60.2,57.8,29.95,West,259,1.1,3.5,92,0.00,BKN,,0.36,0.0,WeatherDisplay:10.37,2013-07-03 21:38:00,
2013-07-03 23:43:00,60.1,57.7,29.95,West,259,0.0,0.0,92,0.00,BKN,,0.36,0.0,WeatherDisplay:10.37,2013-07-03 21:43:00,
2013-07-03 23:48:00,60.1,57.7,29.95,West,259,1.0,4.6,92,0.00,BKN,,0.36,0.0,WeatherDisplay:10.37,2013-07-03 21:48:00,
2013-07-03 23:54:00,60.1,58.0,29.95,West,259,0.0,0.0,93,0.00,BKN,,0.36,0.0,WeatherDisplay:10.37,2013-07-03 21:54:00,
2013-07-03 23:59:00,60.1,58.0,29.95,West,259,0.0,0.0,93,0.00,BKN,,0.36,0.0,WeatherDisplay:10.37,2013-07-03 21:59:00,